DMSP 5D-2 F13 DEB, 40612

Orbit data source: Space-Track

DMSP 5D-2 F13 DEB, 40612 is space debris in SSO originally from a launch on Fri, 24 Mar 1995 UTC launched from the Air Force Western Test Range (AFWTR). Debris objects in space refer to the collection of defunct objects orbiting the Earth. Examples of debris include non-operational satellites, rocket bodies, and fragments generated from explosions, collisions, or faulty payload assembly.

Loading next visibility...
Identifier
40612, 1995-015FK
Orbit
SSO
Country
Flag of USUS
Related business
Manufacturer
Unknown
Mission
Spacecraft
Bus & Motor
Unknown
Mass
Unknown
Launch date (UTC)
1995-03-24 (31 years ago)
Launch vehicle
Unknown
Launch site
Air Force Western Test Range (AFWTR)
Object type
Payload
Rocket body
Debris
Shape & HBR
Unknown shape, 0.1 m
Radar Cross Section
Small (<0.1 m²)

Expand to show TLE details & history
Last TLE update: 20 hours ago

TLE from 20 hours ago
0 DMSP 5D-2 F13 DEB
1 40612U 95015FK  26071.56715064  .00004679  00000-0  15449-2 0  9994
2 40612  98.6857 108.7050 0003427 306.6276  53.4595 14.38518048565453
Epoch: 2026-03-12T13:36Z
TLE epoch observation values (Epoch: 2026-03-12T13:36:41.815Z)
Latitude
-0.00004°
Longitude
94.31559°
Altitude
764.883 km
Speed
7.473 km/s
True Right ascension
07h 14m 49s
True Declination
0° 00' 00"
Sunlit
Object was in daylight at epoch
Visualization orbit readout
Latitude
Unknown
Longitude
Unknown
Altitude
Unknown
Speed
Unknown
Apparent Right ascension
Unknown
Apparent Declination
Unknown
Sunlit
N/A
Visualization observer readout
Local Sidereal Time
14:14:58
Azimuth
Unknown
Elevation
Unknown
Doppler factor
Unknown
Orbital elements
Apogee altitude
762.978 km
Perigee altitude
758.085 km
Semi-major axis
7,138.669 km
Eccentricity
0.00034
Inclination
98.6857°
RAAN
108.705°
Arg. of periapsis
306.6276°
True anomaly
53.49106°
Mean anomaly
53.4595°
Eccentric anomaly
53.47528°
Mean motion
3.59847 °/min
Orbital period
100.04 mins
BSTAR
0.0015449

Documentation

Showing up to 5 results
|